Regional Weather Roundup
Issued by NWS State College, PA

Home | Current Version | Previous Version | Graphics & Text | Print | Product List | Glossary Off
Versions: 1 2 3 4 5 6 7 8 9 10 11 12 13 14 15 16 17 18 19 20 21 22 23 24 25 26 27 28 29 30 31 32 33 34 35 36 37 38 39 40 41 42 43 44 45 46 47 48 49 50

000
ASUS41 KCTP 211203
RWRCTP

REGIONAL WEATHER ROUNDUP
NATIONAL WEATHER SERVICE STATE COLLEGE PA
800 AM EDT TUE OCT 21 2014

Note: "fair" indicates few or no clouds below 12,000 feet with no
significant weather and/or obstructions to visibility.

* = STATION THAT DOES NOT REPORT PRECIPITATION /E.G. RAIN...SNOW...ETC/
    THUNDER OR FOG.

PAZ002>004-007>009-013>016-020>023-029>032-211300-
WESTERN PENNSYLVANIA

CITY           SKY/WX    TMP DP  RH WIND       PRES   REMARKS
ERIE           CLOUDY    53  47  79 N3        29.84R
MEADVILLE      CLOUDY    50  47  89 N3        29.84R FOG
FRANKLIN*      CLOUDY    48  46  93 CALM      29.85R VSB 1/4
NEW CASTLE     RAIN      50  50 100 CALM      29.86R FOG
BEAVER COUNTY  CLOUDY    50  48  93 SW8       29.85S FOG
BUTLER*        CLOUDY    50  46  87 SW5       29.87R
PITTSBURGH INT CLOUDY    50  49  96 W6        29.86R FOG
PITTSBURGH     CLOUDY    50  46  86 SW7       29.85S FOG
INDIANA*       FOG       50  50 100 SW6       29.89R VSB 1/2
LATROBE        CLOUDY    52  52 100 SW7       29.87R FOG
WASHINGTON CO* CLOUDY    50  46  87 SW3       29.88S
$$

PAZ004>006-010>012-017>019-024>028-033>037-041-042-045-046-049>053-211300-
CENTRAL PENNSYLVANIA

CITY           SKY/WX    TMP DP  RH WIND       PRES   REMARKS
BRADFORD       CLOUDY    47  45  93 W5        29.82R
DUBOIS         CLOUDY    48  47  96 W7        29.83R FOG
CLEARFIELD     LGT RAIN  48  48 100 S7        29.84R FOG
JOHNSTOWN      FOG       47  46  97 W7        29.85R VSB 3/4
ALTOONA        CLOUDY    49  47  93 SW5       29.86R
STATE COLLEGE  CLOUDY    46  46 100 CALM      29.85R
WILLIAMSPORT   CLOUDY    48  46  93 CALM      29.85R
SELINSGROVE    PTCLDY    47  45  93 CALM      29.86R
FT INDIANTOWN  FOG       46  46 100 CALM      29.87S VSB 1/4
CAPITAL CITY   FOG       51  51 100 CALM      29.87R VSB 3/4
HARRISBURG     MOCLDY    49  48  97 CALM      29.86R FOG
YORK           FOG       44  44 100 CALM      29.86S VSB<1/4
$$

PAZ038>040-043-044-047-048-054-055-060>062-067>071-211300-
EASTERN PENNSYLVANIA

CITY           SKY/WX    TMP DP  RH WIND       PRES   REMARKS
SCRANTON       CLOUDY    52  48  86 CALM      29.86R
MOUNT POCONO   FOG       47  46  97 E3        29.87R VSB 1/4
ALLENTOWN      CLOUDY    50  47  89 CALM      29.88R
QUAKERTOWN*    PTSUNNY   48  48 100 CALM      29.89R
READING        FOG       51  49  92 CALM      29.87R VSB 3/4
LANCASTER      MOCLDY    48  47  96 CALM      29.87R FOG
COATESVILLE    MOSUNNY   48  48 100 CALM      29.88R FOG
POTTSTOWN      MOCLDY    49  47  93 E3        29.89R
BLUE BELL      MOCLDY    50  48  93 CALM      29.87S
DOYLESTOWN     CLOUDY    48  47  96 N3        29.88S
WILLOW GROVE   NOT AVBL
NORTH PHILA    MOCLDY    51  45  79 NE3       29.90R
PHILADELPHIA   PTCLDY    54  48  80 NE5       29.88R
$$



USA.gov is the U.S. government's official web portal to all federal, state and local government web resources and services.